OSCAR 5

Satellite information

Favourite Embed

Satellite Type and Status

PAYLOADIN ORBIT

Key statistics

Satellite OSCAR 5 at a glance.

Uptime

20318

Days in orbit

Revolutions

≈ 12.5

Per day

Orbit

SSO

Sun Synchronous Orbit

Inclination

101.3

Latest

Satellite identification and parameters

Extended collection of information and parameters for OSCAR 5.

Object identification

Identified? True

Debris? False

Object name: OSCAR 5

International designator: 1970-008B

Object number (NORAD): 4321

Object ID (CCSDS): 4321

Country: AUSTRALIA (AUS)

Current information (Y/N): Y

RCS size: MEDIUM

Orbital parameters

Period: 114.999 minutes

Inclination: 101.3362 deg

SMA: 7833.508 km

Apoapsis: 1477.357 km

Periapsis: 1433.388 km

RAAN: 268.6568 deg

Eccentricy: 0.00280646

Argument of periapsis: 94.2203 deg

Mean anomaly: 20.1509 deg

Mean motion: 12.52184548 rev/day

Mean motion (dot): -0.00000022 rev/day2

B* drag term: 0.00012919396 1/REarth

Two-line elements (TLE)

Creation date: Sept. 8, 2025, 6:18 p.m.

Reference frame: TEME

Reference center: EARTH

Epoch: Sept. 8, 2025, 2:51 p.m. UTC

TLE line 0: 0 OSCAR 5

TLE line 1: 1 04321U 70008B 25251.61924836 -.00000022 00000-0 12919-3 0 9999

TLE line 2: 2 04321 101.3362 268.6568 0028065 94.2203 20.1509 12.52184548542200

Live tracking on map

Real-time ground track for satellite OSCAR 5.

In-orbit conjunctions

A list of the most updated potential collisions computed for object OSCAR 5.

Target Orbit TCA Probability of collision Miss distance Type
DELTA 1 DEB SSO 2024-10-11 13:00:14 0.0003146974 167.0 (m) DEBRIS

Associated space launch

Sun-synchronous meteorological satellite

OSCAR 5 was lifted into orbit during the mission ‘Thor Delta N6 | ITOS 1’, on board a Thor Delta N6 space rocket.

The launch took place on Jan. 23, 1970, 11:31 a.m. from Space Launch Complex 2W.

For more information about the launch, click the button.

Launch to space Thor Delta N6 | ITOS 1
Thor Delta N6 | ITOS 1

Agency: N/A

Status: Launch Successful

Launch date: Jan. 23, 1970, 11:31 a.m. UTC

Rocket: Thor Delta N6

Launch pad: Space Launch Complex 2W

Location: Vandenberg SFB, CA, USA

...

Latest news about this satellite

There are no fresh news available about this satellite. Check back as we update our databases every day.


Newsletter sign-up

Weekly statistics, charts and insights to help you stay on top of the space industry.